Satellite-Ground Cal/Val Region Overpasses Predictions

Prediction of Satellite NPP Overpassing Cal/Val Region: PacNW

Region Location: (Latitude: 10.00, Longitude: 139.50) to (Latitude: 22.70, Longitude: 165.60).

Table of predicted overpasses for the next 14.0 days since TLE Epoch: 8/31/2018
Interval Starting Time Starting Location Ending Time Ending Location
1 08/31/2018 15:11:28 ( 22.66, 157.16) 08/31/2018 15:15:03 ( 10.04, 154.16)
2 09/01/2018 02:20:33 ( 10.01, 164.68) 09/01/2018 02:24:09 ( 22.69, 161.66)
3 09/01/2018 14:52:27 ( 22.67, 161.92) 09/01/2018 14:56:02 ( 10.05, 158.91)
4 09/02/2018 03:43:02 ( 10.00, 144.07) 09/02/2018 03:46:38 ( 22.68, 141.05)
5 09/02/2018 14:34:40 ( 18.28, 165.60) 09/02/2018 14:37:01 ( 10.00, 163.66)
6 09/02/2018 16:14:55 ( 22.68, 141.30) 09/02/2018 16:17:01 ( 15.29, 139.51)
7 09/03/2018 03:24:01 ( 10.05, 148.81) 09/03/2018 03:27:36 ( 22.67, 145.81)
8 09/03/2018 15:55:54 ( 22.69, 146.06) 09/03/2018 15:59:30 ( 10.01, 143.04)
9 09/04/2018 03:05:00 ( 10.04, 153.57) 09/04/2018 03:08:35 ( 22.67, 150.57)
10 09/04/2018 15:36:52 ( 22.70, 150.82) 09/04/2018 15:40:28 ( 10.02, 147.80)
11 09/05/2018 02:45:58 ( 10.04, 158.33) 09/05/2018 02:49:33 ( 22.66, 155.32)
12 09/05/2018 15:17:52 ( 22.65, 155.56) 09/05/2018 15:21:27 ( 10.03, 152.56)
13 09/06/2018 02:26:57 ( 10.03, 163.09) 09/06/2018 02:30:32 ( 22.65, 160.08)
14 09/06/2018 14:58:51 ( 22.65, 160.32) 09/06/2018 15:02:26 ( 10.04, 157.32)
15 09/07/2018 02:10:38 ( 19.59, 165.59) 09/07/2018 02:11:30 ( 22.64, 164.84)
16 09/07/2018 03:49:25 ( 10.02, 142.47) 09/07/2018 03:52:57 ( 22.47, 139.51)
17 09/07/2018 14:39:49 ( 22.66, 165.08) 09/07/2018 14:43:24 ( 10.04, 162.08)
18 09/07/2018 16:21:19 ( 22.66, 139.71) 09/07/2018 16:21:33 ( 21.84, 139.50)
19 09/08/2018 03:30:24 ( 10.02, 147.23) 09/08/2018 03:34:00 ( 22.70, 144.21)
20 09/08/2018 16:02:18 ( 22.67, 144.47) 09/08/2018 16:05:53 ( 10.05, 141.46)
21 09/09/2018 03:11:22 ( 10.01, 151.99) 09/09/2018 03:14:58 ( 22.69, 148.97)
22 09/09/2018 15:43:16 ( 22.67, 149.22) 09/09/2018 15:46:51 ( 10.06, 146.22)
23 09/10/2018 02:52:21 ( 10.00, 156.75) 09/10/2018 02:55:57 ( 22.68, 153.73)
24 09/10/2018 15:24:15 ( 22.68, 153.98) 09/10/2018 15:27:51 ( 10.01, 150.96)
25 09/11/2018 02:33:20 ( 10.06, 161.49) 09/11/2018 02:36:55 ( 22.68, 158.48)
26 09/11/2018 15:05:13 ( 22.69, 158.74) 09/11/2018 15:08:49 ( 10.01, 155.72)
27 09/12/2018 02:15:07 ( 12.87, 165.60) 09/12/2018 02:17:54 ( 22.67, 163.24)
28 09/12/2018 03:55:49 ( 10.05, 140.87) 09/12/2018 03:57:29 ( 15.93, 139.51)
29 09/12/2018 14:46:12 ( 22.70, 163.50) 09/12/2018 14:49:48 ( 10.02, 160.48)
30 09/13/2018 03:36:48 ( 10.05, 145.63) 09/13/2018 03:40:22 ( 22.67, 142.63)
31 09/13/2018 14:30:20 ( 11.55, 165.59) 09/13/2018 14:30:46 ( 10.03, 165.24)
32 09/13/2018 16:08:40 ( 22.70, 142.88) 09/13/2018 16:12:16 ( 10.02, 139.86)


NCC Satellite Cal/Val Overpasses Prediction Service
